#timestamp,LO_Frequency,Hit,StdDev 
1459893615.1,286046997.0,N
1459893635.8,286046997.4,N
1459893655.7,286046997.2,N
1459893675.5,286046997.2,N
1459893695.3,286046997.2,N
1459893715.2,286046999.5,N
1459893735.9,286047000.4,N
1459893755.7,286047002.7,N
1459893775.6,286047000.2,N
1459893795.4,286046996.6,N
1459893815.2,286046998.7,N
1459893835.0,286047000.0,N
1459893836.0,286047000.0,N
1459893855.8,286047000.7,N
1459893875.6,286046996.5,N
1459893895.4,286046997.6,N
1459893915.3,286046994.4,Y
1459893935.1,286046997.4,P
1459893955.8,286046998.4,N
1459893975.7,286046996.5,P
1459893995.5,286047001.2,N
1459894015.3,286046998.7,N
1459894035.2,286047001.1,N
1459894055.9,286046993.5,Y
1459894075.7,286046994.9,P
1459894095.6,286046995.1,N
1459894115.4,286046998.5,N
1459894135.2,286046998.1,N
1459894155.1,286046996.8,N
1459894156.0,286046996.8,N
1459894175.8,286046996.7,N
1459894195.6,286046996.7,N
1459894215.5,286046997.3,N
1459894235.3,286046997.4,N
1459894255.1,286046997.0,N
1459894275.9,286046997.1,N
1459894295.7,286046996.9,N
1459894315.5,286046997.1,N
1459894335.3,286046998.5,N
1459894355.2,286047000.5,N
1459894375.0,286047000.5,N
1459894375.9,286047000.5,N
1459894395.7,286046998.9,N
1459894415.6,286047000.0,N
1459894435.4,286046998.7,N
1459894455.2,286046999.5,N
1459894475.1,286046996.8,N
1459894476.0,286046996.8,N
1459894495.8,286046997.7,N
1459894515.6,286047001.9,N
1459894535.5,286047001.3,N
1459894555.3,286047003.0,N
1459894575.1,286047004.2,N
1459894595.9,286047003.2,N
1459894615.7,286046999.7,N
1459894635.5,286047005.9,N
1459894655.3,286047002.8,N
1459894675.2,286047001.5,N
1459894695.0,286047003.8,N
1459894695.9,286047003.8,N
1459894715.7,286047003.7,N
1459894735.6,286047002.6,N
1459894755.4,286047000.5,N
1459894775.2,286046999.0,N
1459894795.1,286046997.8,N
1459894796.0,286046997.8,N
1459894815.8,286046994.9,N
1459894835.6,286046995.9,N
1459894855.5,286046995.9,N
1459894875.3,286046996.2,N
1459894895.1,286046996.0,N
1459894915.9,286046994.1,N
1459894935.7,286046994.6,N
1459894955.5,286046994.3,N
1459894975.3,286046992.0,N
1459894995.2,286046993.8,N
1459895015.0,286046996.4,N
1459895015.9,286046996.4,N
1459895035.7,286046994.4,N
1459895055.6,286046995.8,N
1459895075.4,286046995.8,N
1459895095.2,286046992.2,N
1459895115.1,286046994.4,N
1459895116.0,286046994.4,N
1459895135.8,286046992.7,N
1459895155.6,286046990.6,N
1459895175.5,286046990.6,N
1459895195.3,286046990.3,N
1459895215.1,286046992.2,N
1459895235.9,286046992.7,N
1459895255.7,286046993.2,N
1459895275.5,286046990.8,Y
1459895295.4,286046996.5,P
1459895315.2,286046999.3,N
1459895335.0,286046997.8,N
1459895335.9,286046997.8,N
1459895355.8,286046998.3,N
1459895375.6,286046999.3,N
1459895395.4,286046998.5,N
1459895415.3,286046998.2,N
1459895435.1,286047004.4,Y
1459895436.0,286047004.4,P
1459895455.8,286047005.2,N
1459895475.7,286047004.1,N
1459895495.5,286047005.7,N
1459895515.3,286047002.9,N
1459895535.2,286047003.2,N
1459895555.9,286047008.6,Y
1459895575.7,286047005.3,P
1459895595.6,286047003.2,P
1459895615.4,286047002.1,N
1459895635.2,286047003.9,Y
1459895655.1,286047000.9,P
1459895656.0,286047000.9,N
1459895675.8,286047000.4,N
1459895695.6,286047003.6,N
1459895715.5,286047002.8,N
1459895735.3,286047002.7,N
1459895755.1,286047001.7,N
1459895775.9,286047002.5,N
1459895795.7,286047000.4,N
1459895815.5,286047000.1,N
1459895835.3,286047000.5,N
1459895855.2,286046999.8,N
1459895875.0,286047002.1,N
1459895875.9,286047002.1,N
1459895895.7,286047001.7,N
1459895915.6,286047002.4,N
1459895935.4,286047003.3,N
1459895955.2,286047002.0,N
1459895975.1,286047000.3,N
1459895976.0,286047000.3,N
1459895995.8,286046998.2,N
1459896015.6,286046999.7,N
1459896035.5,286047000.3,N
1459896055.3,286047002.2,N
1459896075.1,286047002.3,N
1459896095.9,286047002.1,N
1459896115.7,286046999.0,N
1459896135.5,286047000.8,N
1459896155.3,286047003.9,N
1459896175.2,286047001.7,N
1459896195.0,286047006.9,Y
1459896195.9,286047006.9,P
1459896215.8,286047004.0,N
1459896235.6,286047000.3,N
1459896255.4,286047002.1,N
1459896275.2,286047002.1,N
1459896295.1,286047002.2,N
1459896296.0,286047002.2,N
1459896315.8,286047001.2,N
1459896335.6,286046998.9,N
1459896355.5,286046999.3,N
1459896375.3,286046998.7,N
1459896395.1,286047002.5,N
1459896415.9,286047001.5,N
1459896435.7,286047002.9,N
1459896455.5,286047004.4,N
1459896475.4,286047004.1,N
1459896495.2,286047003.2,N
1459896515.0,286047001.1,N
1459896515.9,286047001.1,N
1459896535.8,286046998.8,N
1459896555.6,286046997.9,N
1459896575.4,286046997.2,N
1459896595.2,286046996.5,N
1459896615.1,286046996.9,N
1459896616.0,286046996.9,N
1459896635.8,286046996.7,N
1459896655.6,286046999.1,N
1459896675.5,286046999.2,N
1459896695.3,286046997.9,N
1459896715.1,286046998.7,N
1459896735.9,286046998.1,N
1459896755.7,286046998.9,N
1459896775.5,286046998.1,N
1459896795.4,286046998.7,N
1459896815.2,286046996.9,N
1459896835.0,286046997.4,N
1459896835.9,286046997.4,N
1459896855.8,286046997.4,N
1459896875.6,286047000.8,N
1459896895.4,286047001.0,N
1459896915.3,286047000.2,N
1459896935.1,286047001.0,N
1459896936.0,286047001.0,N
1459896955.8,286046999.3,N
1459896975.7,286046999.2,N
1459896995.5,286046997.1,N
1459897015.3,286046996.7,N
1459897035.1,286046998.0,N
1459897055.9,286046994.9,Y
1459897075.7,286046998.4,P
1459897095.5,286046998.8,P
1459897115.4,286047000.3,N
1459897135.2,286046998.1,N
1459897155.0,286047000.3,N
1459897155.9,286047000.3,N
1459897175.8,286047000.5,N
1459897195.6,286047000.3,N
